TimeCDT,TemperatureF,Dew PointF,Humidity,Sea Level PressureIn,VisibilityMPH,Wind Direction,Wind SpeedMPH,Gust SpeedMPH,PrecipitationIn,Events,Conditions,WindDirDegrees,DateUTC
12:52 AM,64.0,61.0,90,30.04,10.0,Calm,Calm,-,0.00,,Overcast,0,2013-05-03 05:52:00
1:52 AM,64.0,61.0,90,30.01,10.0,ESE,3.5,-,N/A,,Scattered Clouds,120,2013-05-03 06:52:00
2:52 AM,64.0,60.1,87,29.99,10.0,SE,4.6,-,N/A,,Mostly Cloudy,140,2013-05-03 07:52:00
3:52 AM,62.1,57.0,84,29.99,10.0,SE,5.8,-,N/A,,Mostly Cloudy,140,2013-05-03 08:52:00
4:52 AM,62.1,55.9,80,29.99,10.0,SE,6.9,-,N/A,,Overcast,140,2013-05-03 09:52:00
5:52 AM,62.1,55.9,80,29.98,10.0,SE,6.9,-,N/A,,Overcast,130,2013-05-03 10:52:00
6:52 AM,62.1,55.9,80,29.98,10.0,SE,8.1,-,N/A,,Overcast,140,2013-05-03 11:52:00
7:52 AM,64.0,55.9,75,29.98,10.0,SE,10.4,-,N/A,,Partly Cloudy,140,2013-05-03 12:52:00
9:52 AM,66.9,55.0,66,29.95,10.0,SSE,16.1,27.6,N/A,,Mostly Cloudy,150,2013-05-03 14:52:00
11:52 AM,73.0,57.0,57,29.91,10.0,SSE,12.7,25.3,N/A,,Scattered Clouds,150,2013-05-03 16:52:00
12:52 PM,73.9,55.0,52,29.88,10.0,SSE,18.4,29.9,N/A,,Mostly Cloudy,150,2013-05-03 17:52:00
1:52 PM,73.9,55.0,52,29.87,10.0,SSE,15.0,28.8,N/A,,Scattered Clouds,160,2013-05-03 18:52:00
2:52 PM,73.9,57.0,55,29.85,10.0,SSE,11.5,17.3,N/A,,Mostly Cloudy,150,2013-05-03 19:52:00
3:52 PM,73.0,54.0,51,29.82,10.0,SSE,21.9,28.8,N/A,,Partly Cloudy,150,2013-05-03 20:52:00
4:52 PM,73.0,54.0,51,29.81,10.0,SSE,18.4,25.3,N/A,,Mostly Cloudy,150,2013-05-03 21:52:00
5:52 PM,69.1,55.9,63,29.82,10.0,SE,16.1,33.4,0.00,Rain,Light Rain,140,2013-05-03 22:52:00
6:52 PM,68.0,52.0,56,29.82,10.0,SSE,21.9,28.8,0.00,,Partly Cloudy,150,2013-05-03 23:52:00
7:52 PM,66.9,52.0,59,29.84,10.0,SSE,20.7,31.1,0.00,Rain,Light Rain,150,2013-05-04 00:52:00
8:52 PM,54.0,52.0,93,29.88,6.0,West,9.2,-,0.05,Rain,Light Rain,260,2013-05-04 01:52:00
9:06 PM,53.6,51.8,94,29.89,10.0,West,8.1,-,0.00,Rain,Light Rain,280,2013-05-04 02:06:00
9:52 PM,51.1,50.0,96,29.91,5.0,West,8.1,-,0.02,Rain,Light Rain,270,2013-05-04 02:52:00
10:52 PM,48.0,46.0,93,29.94,10.0,WSW,9.2,-,0.03,,Overcast,240,2013-05-04 03:52:00
11:48 PM,46.4,44.6,93,29.94,8.0,SW,5.8,-,0.03,Rain,Light Rain,230,2013-05-04 04:48:00
11:52 PM,46.0,44.1,93,29.94,7.0,SSW,9.2,-,0.03,Rain,Light Rain,210,2013-05-04 04:52:00